Location: Unspecified
(54.1780°N, 0.0000°E)
Time: 05:36:53
(UTC+00:00)

Vanguard 2 - Pass Details

Date: 25 June 2019
Orbit: 554 x 2938 km, 32.9° (Epoch: 13 October)

Event Time Altitude Azimuth Distance (km) Brightness Sun altitude
Rises 08:45:15 0° 217° (SW) 3,219 10.6 42.2°
Reaches altitude 10° 08:49:38 10° 181° (S) 2,700 10.7 42.8°
Maximum altitude 08:51:20 11° 166° (SSE) 2,794 10.9 43.0°
Drops below altitude 10° 08:53:08 10° 151° (SSE) 3,056 11.3 43.3°
Sets 08:59:39 0° 121° (ESE) 4,724 12.3 44.2°
